"Time","Temp","Dewpoint","Humidity","Pressure","Direction","Speed","Gust","Precip","PrecipRate","Solar"
"00:04:57","48.2","46","92.2","29.82","240","0","0","0.00","0.18","0"
"00:09:59","48.2","46.3","93","29.82","240","0.2","1.2","0.00","0.18","0"
"00:14:56","48.2","46.3","93","29.83","240","0","1.2","0.00","0.18","0"
"00:19:59","48.3","46.4","93","29.83","240","0.6","2.4","0.00","0.18","0"
"00:24:56","48.3","46.6","93.6","29.83","240","1.1","3.6","0.00","0.16","0"
"00:29:59","48.3","46.7","94","29.83","230","1.9","3.6","0.00","0.06","0"
"00:34:58","48.5","46.9","94","29.82","229","0.6","3.6","0.00","0.04","0"
"00:39:57","48.6","47","94","29.82","229","1.3","3.6","0.00","0.03","0"
"00:44:59","48.5","46.9","94","29.82","228","2","4.8","0.00","0.02","0"
"00:49:58","48.5","46.9","94","29.81","228","0.8","3.6","0.00","0.01","0"
"00:54:57","48.5","46.9","94","29.81","228","1.1","2.4","0.00","0.00","0"
"00:59:59","48.4","46.8","94","29.81","228","0","1.2","0.00","0.00","0"
"01:04:57","48.3","46.7","94","29.81","228","0.3","2.4","0.00","0.00","0"
"01:09:59","48.2","46.6","94","29.81","228","0.9","2.3","0.00","0.00","0"
"01:14:59","48.2","46.6","94","29.81","228","0","1.2","0.00","0.00","0"
"01:19:57","48.1","46.5","94","29.81","228","0","0","0.00","0.00","0"
"01:24:56","48","46.4","94","29.81","228","0","1.2","0.00","0.00","0"
"01:29:59","47.9","46.3","94","29.82","228","0.9","2.4","0.00","0.00","0"
"01:34:58","47.8","46.2","94","29.82","228","1.7","3.6","0.00","0.00","0"
"01:39:57","47.9","46.3","94.1","29.82","228","1.2","3.6","0.00","0.00","0"
"01:44:56","47.9","46.5","95","29.82","228","0.9","2.4","0.00","0.00","0"
"01:49:59","47.9","46.5","95","29.81","228","0.8","2.4","0.00","0.00","0"
"01:54:58","47.9","46.5","95","29.81","228","0","1.2","0.00","0.00","0"
"01:59:57","47.9","46.5","95","29.81","228","0","0","0.00","0.00","0"
"02:04:58","47.9","46.5","95","29.80","228","0","0","0.00","0.00","0"
"02:09:56","47.9","46.5","95","29.80","228","0.2","1.2","0.00","0.00","0"
"02:14:56","47.9","46.5","95","29.80","228","0","0","0.00","0.00","0"
"02:19:58","47.8","46.4","95","29.80","228","0","0","0.00","0.00","0"
"02:24:57","47.8","46.4","95","29.80","228","0","0","0.00","0.00","0"
"02:29:56","47.7","46.3","95","29.80","228","0","0","0.00","0.00","0"
"02:34:59","47.6","46.2","95","29.80","228","0","0","0.00","0.00","0"
"02:39:58","47.5","46.1","95","29.80","228","0","0","0.00","0.00","0"
"02:44:57","47.5","46.1","95","29.80","228","0","0","0.00","0.00","0"
"02:49:59","47.4","46","95","29.80","228","0","0","0.00","0.00","0"
"02:54:58","47.5","46.1","95","29.80","228","0","0","0.00","0.00","0"
"02:59:57","47.6","46.2","95","29.80","228","0","0","0.00","0.00","0"
"03:04:59","47.8","46.4","95","29.80","228","0","0","0.00","0.00","0"
"03:09:58","47.9","46.5","95","29.80","228","0","0","0.00","0.00","0"
"03:14:57","47.9","46.5","95","29.80","228","0","0","0.00","0.00","0"
"03:19:59","47.9","46.5","95","29.80","228","0","0","0.00","0.00","0"
"03:24:58","47.9","46.5","95","29.80","228","0","0","0.00","0.00","0"
"03:29:57","47.9","46.5","95","29.80","228","0","0","0.00","0.00","0"
"03:34:56","47.8","46.4","95","29.80","228","0","0","0.00","0.00","0"
"03:39:55","47.7","46.3","95","29.80","228","0","0","0.00","0.00","0"
"03:44:59","47.7","46.3","95","29.80","228","0","0","0.00","0.00","0"
"03:49:57","47.8","46.5","95.3","29.80","228","0","0","0.00","0.00","0"
"03:54:56","47.7","46.6","96","29.80","228","0","0","0.00","0.00","0"
"03:59:57","47.7","46.4","95.4","29.80","228","0","0","0.00","0.00","0"
"04:04:59","47.7","46.3","95","29.80","228","0","0","0.00","0.00","0"
"04:09:57","47.7","46.3","95.2","29.80","228","0","0","0.00","0.00","0"
"04:14:56","47.7","46.4","95.2","29.80","228","0","0","0.00","0.00","0"
"04:19:58","47.6","46.2","95","29.80","228","0","0","0.00","0.00","0"
"04:24:59","47.5","46.3","95.8","29.80","228","0","0","0.00","0.00","0"
"04:29:56","47.3","46.2","96","29.80","228","0","0","0.00","0.00","0"
"04:34:59","47.2","46.1","95.8","29.80","228","0","0","0.00","0.00","0"
"04:39:58","47.2","46.1","96","29.80","228","0","0","0.00","0.00","0"
"04:44:57","47.2","46.1","96","29.80","228","0","0","0.00","0.00","0"
"04:49:59","47.4","46.3","96","29.80","228","0.1","2.4","0.00","0.00","0"
"04:54:58","47.6","46.5","96","29.80","228","1.1","2.4","0.00","0.00","0"
"04:59:57","47.7","46.6","96","29.81","228","0.4","2.3","0.00","0.00","0"
"05:04:58","47.8","46.7","96","29.81","228","0","0","0.00","0.00","0"
"05:09:57","47.9","46.8","96","29.81","349","1.1","4.8","0.00","0.00","0"
"05:14:56","48","46.9","96","29.82","353","0.4","4.6","0.00","0.00","0"
"05:19:59","48.2","47.1","96","29.82","350","0.9","2.4","0.00","0.00","0"
"05:24:57","48.3","47.2","96","29.82","350","0.6","2.4","0.01","0.01","0"
"05:29:59","48.5","47.4","96","29.82","350","0.6","2.4","0.01","0.01","0"
"05:34:58","48.7","47.6","96","29.82","350","0","0","0.01","0.01","0"
"05:39:57","48.8","47.7","96","29.82","350","0","0","0.01","0.01","0"
"05:44:56","48.9","47.8","96","29.83","350","0","0","0.01","0.01","0"
"05:49:59","49","47.9","96","29.83","350","0","0","0.01","0.01","0"
"05:54:58","49.1","48","96","29.83","350","0","0","0.01","0.01","0"
"05:59:56","49.2","48.1","96","29.83","350","0","0","0.01","0.01","0"
"06:04:58","49.3","48.2","96","29.82","350","0","0","0.01","0.01","0"
"06:09:58","49.3","48.2","96","29.82","350","0","0","0.01","0.01","0"
"06:14:57","49.3","48.2","96","29.82","350","0","0","0.01","0.01","5"
"06:19:56","49.2","48.1","96","29.82","350","0","0","0.01","0.01","7"
"06:24:59","49.2","48.1","96","29.82","350","0","0","0.01","0.01","11"
"06:29:58","49.1","48","96","29.83","350","0","0","0.01","0.00","12"
"06:34:56","49.1","48","96","29.83","350","0","0","0.01","0.00","12"
"06:39:58","49.3","48.2","96","29.83","350","0.7","2.4","0.01","0.00","14"
"06:44:57","49.5","48.4","96","29.83","350","0.1","2.3","0.01","0.00","16"
"06:49:59","49.6","48.5","96","29.83","348","0.6","2.4","0.01","0.00","18"
"06:54:57","49.7","48.6","96","29.83","348","0.9","3.6","0.01","0.00","32"
"06:59:59","49.7","48.6","96","29.83","348","0.1","2.3","0.01","0.00","40"
"07:04:56","49.9","48.8","96","29.83","346","0.5","2.4","0.01","0.00","47"
"07:09:59","50","48.9","96","29.83","345","0.6","2.4","0.01","0.00","53"
"07:14:59","50.1","49","96","29.83","348","0.1","1.2","0.01","0.00","70"
"07:19:57","50.3","49.2","96","29.83","348","0","0","0.01","0.00","88"
"07:24:57","50.7","49.8","96.6","29.83","347","0","0","0.01","0.00","142"
"07:29:58","51","50","96.2","29.83","347","0.2","2.4","0.01","0.00","155"
"07:34:57","51.2","50.4","97","29.83","346","0.9","2.4","0.01","0.00","160"
"07:39:59","51.3","50.5","97","29.83","268","0.8","2.4","0.01","0.00","149"
"07:44:58","51.4","50.6","97","29.83","221","0.3","2.3","0.01","0.00","169"
"07:49:56","51.6","50.6","96.1","29.83","221","0","0","0.01","0.00","148"
"07:54:58","52","51.2","96.9","29.83","221","0.5","2.4","0.01","0.00","58"
"07:59:57","52.3","51.3","96.2","29.84","221","0.2","1.2","0.01","0.00","207"
"08:04:58","52.6","51.7","96.6","29.84","228","0","0","0.01","0.00","167"
"08:09:57","52.9","51.9","96.2","29.84","229","0","0","0.01","0.00","107"
"08:14:56","53.3","52.4","96.8","29.84","335","0.8","4.8","0.01","0.00","151"
"08:19:58","53.6","52.5","96","29.84","325","0.5","3.6","0.01","0.00","151"
"08:24:56","54","52.9","96","29.84","325","0.7","2.4","0.01","0.00","116"
"08:29:58","54.4","53.2","95.7","29.85","249","1.7","3.6","0.01","0.00","116"
"08:34:57","54.7","52.9","93.8","29.85","206","0.3","4.8","0.01","0.00","69"
"08:39:59","55.2","52.6","91.1","29.85","314","1.3","4.8","0.01","0.00","287"
"08:44:57","55.8","52.8","89.6","29.85","215","1.3","4.8","0.01","0.00","338"
"08:49:59","56.4","52.5","86.8","29.85","205","2.6","6","0.01","0.00","197"
"08:54:58","56.8","52.3","85","29.85","215","0.6","2.4","0.01","0.00","197"
"08:59:59","57.3","52.4","83.8","29.86","199","1.2","3.6","0.01","0.00","151"
"09:04:56","57.8","52.4","82.2","29.86","230","1.5","4.8","0.01","0.00","151"
"09:09:59","58.3","51.9","79.3","29.86","250","1.5","4.8","0.01","0.00","396"
"09:14:58","58.7","52","78.3","29.86","325","1.9","6","0.01","0.00","339"
"09:19:56","59.1","51.7","76.6","29.86","276","2.5","6","0.01","0.00","290"
"09:24:58","59.1","50","71.7","29.86","299","3.2","12","0.01","0.00","241"
"09:29:56","58.9","50.9","74.6","29.86","237","1.5","5.8","0.01","0.00","127"
"09:34:59","58.8","50.5","74.1","29.86","273","2.5","8.4","0.01","0.00","130"
"09:39:57","58.7","50.3","73.6","29.86","311","3.3","9.6","0.01","0.00","179"
"09:44:59","59.2","51.5","75.6","29.86","274","3","7.2","0.01","0.00","102"
"09:49:57","60.2","51.2","72.3","29.86","297","4","10.8","0.01","0.00","483"
"09:54:59","60.3","49.9","68.5","29.86","323","4.6","13.2","0.01","0.00","299"
"09:59:59","60.7","50.3","68.4","29.86","269","3.1","7.2","0.01","0.00","272"
"10:04:57","61","48.7","63.9","29.86","312","4.7","13.2","0.01","0.00","315"
"10:09:59","60.6","48.9","65.3","29.86","243","4","12","0.01","0.00","243"
"10:14:59","59.9","48.2","65.2","29.86","315","3.9","8.4","0.01","0.00","123"
"10:19:57","59.4","47.7","65.4","29.86","315","3.4","9.6","0.01","0.00","158"
"10:24:56","59.2","47.7","65.9","29.86","286","3.3","9.6","0.01","0.00","250"
"10:29:58","59.6","48.4","66.3","29.86","345","3.8","8.4","0.01","0.00","297"
"10:34:56","60.7","48.5","64.2","29.86","256","4.2","13.2","0.01","0.00","299"
"10:39:59","60.8","48.8","64.8","29.86","325","3","10.8","0.01","0.00","295"
"10:44:57","61","49.3","65.5","29.86","236","3.8","12","0.01","0.00","376"
"10:49:59","61","48.7","63.9","29.86","261","3","9.2","0.01","0.00","355"
"10:54:57","61.2","48.9","63.9","29.86","311","3.7","10.8","0.01","0.00","338"
"10:59:59","61.2","48","61.9","29.87","329","4","10.8","0.01","0.00","316"
"11:04:58","60.7","47.8","62.5","29.87","310","4.6","13.2","0.01","0.00","225"
"11:09:56","60.4","48","63.6","29.87","325","3.4","10.8","0.01","0.00","192"
"11:14:59","60","47.3","62.9","29.88","303","3.7","12","0.01","0.00","142"
"11:19:57","59.9","47.9","64.6","29.88","283","2.9","10.8","0.01","0.00","234"
"11:24:56","60.2","48.2","64.5","29.88","293","2.8","8.4","0.01","0.00","283"
"11:29:58","60.7","48.6","64.3","29.88","297","2.2","6","0.01","0.00","332"
"11:34:56","61.8","49.2","63.5","29.88","340","4.5","12","0.01","0.00","332"
"11:39:59","61.4","47.8","60.9","29.88","320","4.1","12","0.01","0.00","668"
"11:44:57","62.4","49.8","63.5","29.88","330","5.1","15.6","0.01","0.00","668"
"11:49:59","62.4","48.1","59.5","29.87","339","5.4","15","0.01","0.00","1028"
"11:54:58","62.2","48.4","60.6","29.87","324","5.2","10.8","0.01","0.00","295"
"11:59:58","62.5","48.7","60.6","29.88","310","4.7","13.2","0.01","0.00","967"
"12:04:56","63.8","50","61","29.88","315","6.2","16.8","0.01","0.00","900"
"12:09:58","63.7","48.3","57.4","29.88","317","7.7","24.2","0.01","0.00","900"
"12:14:57","63.6","48.8","58.4","29.88","315","6.6","18.4","0.01","0.00","851"
"12:19:59","64.2","50.1","60.1","29.87","313","6.3","20.7","0.01","0.00","909"
"12:24:57","64.3","49.4","58.4","29.87","318","6.4","18.4","0.01","0.00","998"
"12:29:59","64.9","49.9","58.2","29.88","328","5.1","14.4","0.01","0.00","1060"
"12:34:58","65.1","49.5","57.1","29.88","276","4.7","16.1","0.01","0.00","1039"
"12:39:56","64.4","48.5","56.2","29.88","327","5.8","16.8","0.01","0.00","1067"
"12:44:58","63.4","47.3","55.9","29.88","323","6.4","17.3","0.01","0.00","476"
"12:49:56","62.6","47.2","57.1","29.88","333","6.6","17.3","0.01","0.00","417"
"12:54:59","62.6","47.5","57.8","29.88","329","6.2","12","0.01","0.00","404"
"12:59:56","62.6","47.9","58.5","29.89","306","5.9","15","0.01","0.00","531"
"13:04:58","62.5","47.3","57.4","29.89","332","7.1","19.6","0.01","0.00","531"
"13:09:57","63.1","48.6","59.1","29.89","282","5.5","15.6","0.01","0.00","881"
"13:14:56","63.7","47.6","55.7","29.89","309","6.1","16.1","0.01","0.00","919"
"13:19:57","64.8","49.5","57.7","29.88","275","5.8","15.6","0.01","0.00","928"
"13:24:56","64.7","48.4","55.5","29.88","324","6.3","16.1","0.01","0.00","907"
"13:29:58","64.9","49.8","58.1","29.88","266","5.4","20.4","0.01","0.00","979"
"13:34:56","65.3","48.6","54.8","29.88","275","6.2","18","0.01","0.00","979"
"13:39:59","65.6","49.1","55.2","29.88","265","6.1","18.4","0.01","0.00","963"
"13:44:57","65.2","47.8","53.4","29.88","276","5.9","15","0.01","0.00","993"
"13:49:59","64.6","47.7","54.1","29.88","311","4.1","10.8","0.01","0.00","237"
"13:54:58","64","47.1","54.3","29.88","262","4.5","10.4","0.01","0.00","232"
"13:59:56","63","46.3","54.5","29.88","322","5.7","16.1","0.01","0.00","174"
"14:04:57","62.6","46.3","55.1","29.88","283","5","16.1","0.01","0.00","272"
"14:09:56","62.9","46.4","54.8","29.88","335","5.8","16.1","0.01","0.00","272"
"14:14:59","62.8","46","54","29.89","321","5","15","0.01","0.00","227"
"14:19:57","62.9","47.3","56.6","29.89","299","3.3","10.4","0.01","0.00","234"
"14:24:59","63.2","47.2","55.9","29.89","308","4.6","10.8","0.01","0.00","220"
"14:29:57","63","46.6","55.1","29.89","314","5.3","10.8","0.01","0.00","234"
"14:34:56","63.1","46.9","55.5","29.89","327","5.6","16.1","0.01","0.00","404"
"14:39:58","63.6","48.1","57.1","29.89","319","4.9","13.2","0.01","0.00","469"
"14:44:57","63.8","47.5","55.4","29.89","334","5.8","13.2","0.01","0.00","346"
"14:49:58","64.2","47.4","54.4","29.89","341","6.3","16.1","0.01","0.00","346"
"14:54:57","63.9","46.9","53.9","29.89","334","6.2","15","0.01","0.00","216"
"14:59:59","63.4","46.7","54.5","29.89","307","4.1","11.5","0.01","0.00","313"
"15:04:56","63.3","46.9","54.9","29.89","311","5.4","16.1","0.01","0.00","403"
"15:09:59","63.8","47","54.5","29.89","325","5.1","14.4","0.01","0.00","403"
"15:14:58","64.3","47.7","54.7","29.89","316","5.2","16.8","0.01","0.00","292"
"15:19:56","64.1","46.9","53.6","29.89","297","4","17.3","0.01","0.00","292"
"15:24:58","64.4","47.8","54.8","29.89","292","2.9","15","0.01","0.00","436"
"15:29:57","65.5","48.4","54.1","29.89","337","5.5","18","0.01","0.00","436"
"15:34:59","65.5","47.3","51.8","29.89","274","3.5","10.4","0.01","0.00","413"
"15:39:58","65.9","47.8","52","29.89","321","3.8","10.8","0.01","0.00","383"
"15:44:56","65.4","47.9","53.1","29.89","294","4.8","17.3","0.01","0.00","350"
"15:49:58","64.8","46.8","52","29.89","281","3.7","7.2","0.01","0.00","352"
"15:54:56","64.6","47.1","53","29.89","268","2.9","7.2","0.01","0.00","352"
"15:59:58","64.4","46.8","52.7","29.89","319","3.9","8.4","0.01","0.00","230"
"16:04:59","64.2","46","51.7","29.89","324","4.5","10.8","0.01","0.00","195"
"16:09:58","64","46.9","53.7","29.89","317","4.3","16.1","0.01","0.00","186"
"16:14:57","64.4","47.3","53.7","29.89","350","4.5","15","0.01","0.00","225"
"16:19:59","65.2","46.9","51.7","29.89","341","4.4","13.2","0.01","0.00","223"
"16:24:58","65.2","46.4","50.6","29.89","345","6","16.1","0.01","0.00","230"
"16:29:56","64.8","46.6","51.6","29.89","330","4.4","9.6","0.01","0.00","209"
"16:34:58","64.8","47.6","53.8","29.89","334","2.3","10.8","0.01","0.00","165"
"16:39:57","65.7","47.3","51.6","29.89","334","4.9","15","0.01","0.00","555"
"16:44:59","65.7","45.9","48.9","29.90","322","4.4","13.2","0.01","0.00","190"
"16:49:57","65.5","46.5","50.3","29.90","309","3.6","12.7","0.01","0.00","190"
"16:54:55","66.7","47.2","49.6","29.90","267","4","10.8","0.01","0.00","591"
"16:59:58","67.5","47.7","49.1","29.90","305","3.7","9.6","0.01","0.00","587"
"17:04:59","67.8","48.4","49.9","29.90","258","3.7","10.8","0.01","0.00","571"
"17:09:57","67.9","48.5","49.8","29.90","294","2.9","8.4","0.01","0.00","353"
"17:14:56","67.1","47.7","49.6","29.91","326","3.6","8.4","0.01","0.00","183"
"17:19:58","66.1","47.1","50.4","29.91","326","4.2","15","0.01","0.00","199"
"17:24:58","66.3","47.8","51.3","29.91","311","3.3","10.8","0.01","0.00","434"
"17:29:56","66.9","48.5","51.6","29.91","320","2.2","7.2","0.01","0.00","422"
"17:34:59","66.9","47.6","50","29.91","337","2.8","8.4","0.01","0.00","380"
"17:39:58","67.2","48.3","50.6","29.91","325","2.6","8.4","0.01","0.00","369"
"17:44:56","67.7","49","51.2","29.92","328","2.7","8.1","0.01","0.00","294"
"17:49:58","67.3","47.7","49.5","29.92","323","3.3","12","0.01","0.00","169"
"17:54:57","66.6","47.8","50.8","29.92","318","2.3","8.4","0.01","0.00","232"
"17:59:59","66.7","47.2","49.5","29.92","332","2.5","7.2","0.01","0.00","179"
"18:04:56","66.5","47","49.5","29.92","340","3.2","12","0.01","0.00","227"
"18:09:59","66","45.8","48.1","29.92","287","4.2","11.5","0.01","0.00","274"
"18:14:58","66.1","46","48.4","29.92","314","2.7","6","0.01","0.00","176"
"18:19:56","66.1","46.7","49.7","29.92","340","2.5","8.4","0.01","0.00","114"
"18:24:59","65.9","46.8","50.2","29.92","324","2.5","9.6","0.01","0.00","98"
"18:29:57","65.5","46","49.3","29.92","305","2.1","6","0.01","0.00","65"
"18:34:56","65.1","45.8","49.7","29.92","337","3.5","8.4","0.01","0.00","65"
"18:39:59","64.8","45.7","50","29.92","343","2.4","6","0.01","0.00","63"
"18:44:58","64.5","46","51","29.92","323","1","3.6","0.01","0.00","72"
"18:49:56","64.4","45.7","50.7","29.92","338","2.3","6","0.01","0.00","72"
"18:54:58","64.5","45.6","50.3","29.92","317","3.2","7.2","0.01","0.00","65"
"18:59:56","64.5","45.5","50.2","29.93","341","3.8","8.4","0.01","0.00","62"
"19:04:58","64.4","45.5","50.4","29.93","330","2.6","6.9","0.01","0.00","49"
"19:09:56","64.2","46.5","52.6","29.93","323","0.8","3.5","0.01","0.00","42"
"19:14:59","64","46.9","53.7","29.94","322","1.1","6","0.01","0.00","40"
"19:19:58","63.8","46.5","53.3","29.94","328","1.6","4.8","0.01","0.00","42"
"19:24:56","63.8","45.4","51.3","29.94","306","2.7","8.4","0.01","0.00","39"
"19:29:58","63.9","45.2","50.6","29.94","303","3.1","8.1","0.01","0.00","32"
"19:34:57","63.9","45.5","51.3","29.94","352","2.4","6.9","0.01","0.00","26"
"19:39:56","63.8","45.2","50.7","29.94","315","1.6","6","0.01","0.00","21"
"19:44:59","63.7","45.1","50.6","29.94","339","2.1","6","0.01","0.00","21"
"19:49:57","63.7","44.8","50.3","29.94","339","1.7","4.6","0.01","0.00","16"
"19:54:57","63.6","45.2","51.2","29.94","333","0.9","3.6","0.01","0.00","14"
"19:59:56","63.3","45.6","52.3","29.95","326","0.7","2.4","0.01","0.00","12"
"20:04:57","63.1","45.8","53.2","29.95","327","0","0","0.01","0.00","11"
"20:09:56","62.9","45.2","52.5","29.95","338","1","4.8","0.01","0.00","7"
"20:14:57","62.7","45.7","53.8","29.95","350","0","0","0.01","0.00","5"
"20:19:56","62.4","45.6","54.1","29.94","350","0.2","2.4","0.01","0.00","0"
"20:24:56","62.1","45.5","54.5","29.94","350","0.1","1.2","0.01","0.00","0"
"20:29:59","61.6","45.5","55.4","29.95","350","0.1","1.2","0.01","0.00","0"
"20:34:58","61.1","45.3","56","29.95","350","0","1.2","0.01","0.00","0"
"20:39:57","60.5","45.3","57.3","29.95","350","0","1.2","0.01","0.00","0"
"20:44:56","60","45.9","59.5","29.95","350","0","0","0.01","0.00","0"
"20:49:59","59.5","45.3","59.3","29.95","350","0","0","0.01","0.00","0"
"20:54:58","58.9","45.6","61.1","29.95","350","0","0","0.01","0.00","0"
"20:59:57","58.4","46","63.5","29.96","350","0","0","0.01","0.00","0"
"21:04:57","57.7","46","64.9","29.96","350","0","0","0.01","0.00","0"
"21:09:56","57.1","46","66.4","29.96","350","0","0","0.01","0.00","0"
"21:14:59","56.5","46","67.7","29.97","350","0","0","0.01","0.00","0"
"21:19:58","55.9","45.8","68.5","29.97","350","0","0","0.01","0.00","0"
"21:24:57","55.5","45.8","69.9","29.97","350","0","0","0.01","0.00","0"
"21:29:56","55.1","45.6","70.1","29.97","350","0","0","0.01","0.00","0"
"21:34:59","54.8","45.9","71.8","29.97","350","0","0","0.01","0.00","0"
"21:39:59","54.6","45.9","72.4","29.97","350","0","0","0.01","0.00","0"
"21:44:58","54.3","45.8","73","29.98","350","0","0","0.01","0.00","0"
"21:49:57","54","45.7","73.4","29.98","350","0","0","0.01","0.00","0"
"21:54:56","53.6","46","75.2","29.98","350","0","0","0.01","0.00","0"
"21:59:59","53.2","46.1","76.7","29.98","350","0","0","0.01","0.00","0"
"22:04:57","52.8","45.9","77.5","29.98","350","0","1.2","0.01","0.00","0"
"22:09:59","52.4","45.7","78","29.98","350","0","0","0.01","0.00","0"
"22:14:59","52.2","45.9","78.8","29.99","350","0","0","0.01","0.00","0"
"22:19:58","52","45.7","79.1","29.99","350","0","0","0.01","0.00","0"
"22:24:58","51.7","45.7","80","29.99","350","0","0","0.01","0.00","0"
"22:29:56","51.4","45.6","80.4","30.00","350","0","0","0.01","0.00","0"
"22:34:59","51.3","45.7","81","30.00","350","0","0","0.01","0.00","0"
"22:39:59","51.2","45.8","81.6","30.00","350","0","0","0.01","0.00","0"
"22:44:58","51","45.7","82.1","30.01","350","0","0","0.01","0.00","0"
"22:49:57","50.9","45.9","83.1","30.01","350","0","0","0.01","0.00","0"
"22:54:56","50.9","46.2","84","30.01","350","0","0","0.01","0.00","0"
"22:59:59","50.8","46.1","84","30.01","350","0","0","0.01","0.00","0"
"23:04:56","50.7","45.9","83.8","30.01","350","0","0","0.01","0.00","0"
"23:09:59","50.4","45.7","84","30.01","350","0","0","0.01","0.00","0"
"23:14:58","50.2","45.6","84","30.01","350","0","0","0.01","0.00","0"
"23:19:57","50","45.7","85","30.01","350","0","0","0.01","0.00","0"
"23:24:59","49.8","45.5","85","30.01","350","0","0","0.01","0.00","0"
"23:29:58","49.6","45.4","85.6","30.02","350","0","0","0.01","0.00","0"
"23:34:57","49.4","45.4","86","30.02","350","0","0","0.01","0.00","0"
"23:39:57","49.3","45.3","86","30.02","350","0","0","0.01","0.00","0"
"23:44:58","49.2","45.4","86.8","30.03","350","0","0","0.01","0.00","0"
